Voltar ao catálogo

NOAA 16 DEB

AtivoSSO
NORAD 41217·DEBRIS·🇺🇸 United States

Lançado Sep 21, 2000 de Vandenberg Space Force Base

Loading…

Próximas Passagens (próximas 24 horas)

TLE

AtualizadoSource: Space-Track

Época: Sep 12, 2026, 07:04 UTC

1 41217U 00055DW  26255.29512862  .00001927  00000-0  92997-3 0  9998
2 41217  98.6862 281.9339 0038277  16.6765 343.5660 14.19400796551738

Acompanhe NOAA 16 DEB em tempo real com AllMySat

Download on the App Store